Location: Bremen
(53.0793°N, 8.8017°E)
Time: 23:24:29
(UTC+02:00)

Vanguard 2 Rocket - Pass Details

Date: 15 April 2024
Orbit: 556 x 3304 km, 32.9° (Epoch: 20 May)

Event Time Altitude Azimuth Distance (km) Brightness Sun altitude
Rises 06:05:22 0° 270° (W) 7,010 10.8 -3.6°
Reaches altitude 10° 06:12:45 10° 254° (WSW) 5,577 10.2 -2.6°
Maximum altitude 06:21:14 17° 222° (SW) 4,344 9.9 -1.4°
Drops below altitude 10° 06:27:57 10° 188° (S) 4,231 10.1 -0.4°
Sets 06:32:22 0° 168° (SSE) 4,725 10.5 0.2°
